| time (UTC) | temp F | wind direction | speed MPH | gust MPH | rain 1hr in | rain 24hr in | rain mn in | humidity % | barometer mb |
| 20260503023012 | 48 | 250 | 0.0 | 1.0 | 0.00 | 0.01 | 0.01 | 91 | 1009.9 |
| 20260503021550 | 48 | 250 | 0.0 | 0.0 | 0.00 | 0.01 | 0.01 | 91 | 1010.2 |
| 20260503020025 | 48 | 250 | 0.0 | 1.0 | 0.00 | 0.01 | 0.01 | 90 | 1010.2 |
| 20260503014501 | 48 | 189 | 0.0 | 0.0 | 0.00 | 0.01 | 0.01 | 90 | 1010.3 |
| 20260503013039 | 48 | 189 | 0.0 | 1.0 | 0.00 | 0.01 | 0.01 | 90 | 1010.2 |
| 20260503011604 | 49 | 188 | 0.0 | 0.0 | 0.00 | 0.01 | 0.01 | 89 | 1010.2 |
| 20260503010039 | 49 | 189 | 0.0 | 0.0 | 0.00 | 0.01 | 0.01 | 89 | 1010.2 |
| 20260503004511 | 49 | 189 | 0.0 | 0.0 | 0.00 | 0.01 | 0.01 | 88 | 1010.0 |
| 20260503003048 | 49 | 188 | 0.0 | 0.0 | 0.00 | 0.01 | 0.01 | 88 | 1009.8 |
| 20260503001507 | 50 | 189 | 0.0 | 0.0 | 0.00 | 0.01 | 0.01 | 88 | 1009.6 |
| 20260503000050 | 50 | 189 | 0.0 | 1.0 | 0.00 | 0.01 | 0.01 | 87 | 1009.6 |
| 20260502234553 | 50 | 206 | 0.0 | 3.0 | 0.00 | 0.01 | 0.01 | 87 | 1009.5 |
| 20260502233021 | 51 | 138 | 0.0 | 4.0 | 0.00 | 0.01 | 0.01 | 86 | 1009.7 |
| 20260502231554 | 51 | 180 | 1.0 | 3.0 | 0.00 | 0.01 | 0.01 | 85 | 1009.7 |
| 20260502230033 | 52 | 163 | 0.0 | 2.0 | 0.00 | 0.01 | 0.01 | 85 | 1009.5 |
| 20260502224549 | 52 | 75 | 0.0 | 3.0 | 0.00 | 0.01 | 0.01 | 84 | 1009.7 |
| 20260502223023 | 52 | 164 | 1.0 | 2.0 | 0.00 | 0.01 | 0.01 | 84 | 1009.6 |
| 20260502221600 | 53 | 168 | 1.0 | 5.0 | 0.00 | 0.01 | 0.01 | 83 | 1009.7 |
| 20260502220035 | 53 | 165 | 1.0 | 5.0 | 0.00 | 0.01 | 0.01 | 81 | 1009.5 |
| 20260502214603 | 53 | 200 | 0.0 | 4.0 | 0.00 | 0.01 | 0.01 | 81 | 1009.7 |
| 20260502213022 | 53 | 269 | 2.0 | 6.0 | 0.00 | 0.01 | 0.01 | 82 | 1009.7 |
| 20260502211540 | 54 | 232 | 2.0 | 4.0 | 0.00 | 0.01 | 0.01 | 81 | 1009.5 |
| 20260502210133 | 54 | 163 | 2.0 | 4.0 | 0.00 | 0.01 | 0.01 | 81 | 1009.4 |
| 20260502204535 | 54 | 220 | 1.0 | 6.0 | 0.00 | 0.01 | 0.01 | 81 | 1009.4 |
| 20260502203055 | 54 | 226 | 2.0 | 7.0 | 0.00 | 0.01 | 0.01 | 82 | 1009.7 |
| 20260502201610 | 53 | 153 | 3.0 | 8.0 | 0.00 | 0.01 | 0.01 | 83 | 1010.0 |
| 20260502200100 | 52 | 157 | 2.0 | 6.0 | 0.00 | 0.01 | 0.01 | 85 | 1009.9 |
| 20260502194531 | 52 | 139 | 2.0 | 8.0 | 0.00 | 0.01 | 0.01 | 85 | 1010.1 |
| 20260502193052 | 52 | 151 | 1.0 | 8.0 | 0.00 | 0.01 | 0.01 | 85 | 1010.3 |
| 20260502191524 | 52 | 123 | 1.0 | 5.0 | 0.00 | 0.01 | 0.01 | 86 | 1010.5 |
| 20260502190045 | 52 | 165 | 2.0 | 6.0 | 0.00 | 0.01 | 0.01 | 86 | 1010.6 |
| 20260502184512 | 52 | 162 | 2.0 | 7.0 | 0.00 | 0.01 | 0.01 | 85 | 1010.8 |
| 20260502183040 | 52 | 169 | 3.0 | 8.0 | 0.00 | 0.01 | 0.01 | 86 | 1010.7 |
| 20260502181507 | 52 | 150 | 2.0 | 4.0 | 0.00 | 0.01 | 0.01 | 86 | 1010.9 |
| 20260502163037 | 51 | 204 | 2.0 | 5.0 | 0.00 | 0.01 | 0.01 | 86 | 1011.3 |
| 20260502161554 | 51 | 216 | 3.0 | 6.0 | 0.00 | 0.01 | 0.01 | 86 | 1011.2 |
| 20260502151526 | 50 | 192 | 0.0 | 6.0 | 0.01 | 0.01 | 0.01 | 87 | 1011.8 |
| 20260502123043 | 51 | 256 | 0.0 | 3.0 | 0.00 | 0.00 | 0.00 | 83 | 1011.8 |
| 20260502121554 | 51 | 240 | 2.0 | 6.0 | 0.00 | 0.00 | 0.00 | 83 | 1012.4 |
| 20260502114544 | 51 | 278 | 2.0 | 4.0 | 0.00 | 0.00 | 0.00 | 83 | 1011.9 |
| 20260502113050 | 50 | 270 | 1.0 | 4.0 | 0.00 | 0.00 | 0.00 | 84 | 1011.7 |
| 20260502111503 | 49 | 297 | 0.0 | 2.0 | 0.00 | 0.00 | 0.00 | 85 | 1011.7 |
| 20260502110025 | 49 | 210 | 0.0 | 1.0 | 0.00 | 0.00 | 0.00 | 86 | 1011.4 |
| 20260502104546 | 48 | 210 | 0.0 | 2.0 | 0.00 | 0.00 | 0.00 | 86 | 1011.6 |
| 20260502103108 | 47 | 202 | 0.0 | 1.0 | 0.00 | 0.00 | 0.00 | 85 | 1011.5 |
| 20260502101522 | 47 | 202 | 0.0 | 0.0 | 0.00 | 0.00 | 0.00 | 84 | 1011.4 |
| 20260502100116 | 48 | 178 | 0.0 | 0.0 | 0.00 | 0.00 | 0.00 | 84 | 1011.3 |
| 20260502091518 | 49 | 235 | 0.0 | 3.0 | 0.00 | 0.00 | 0.00 | 82 | 1011.4 |
| 20260502071506 | 48 | 267 | 0.0 | 1.0 | 0.00 | 0.00 | 0.00 | 81 | 1011.3 |
| 20260502070038 | 48 | 202 | 0.0 | 3.0 | 0.00 | 0.00 | 0.00 | 80 | 1011.4 |
| 20260502064552 | 48 | 154 | 1.0 | 3.0 | 0.00 | 0.00 | 0.00 | 79 | 1011.5 |
| 20260502063025 | 48 | 194 | 0.0 | 2.0 | 0.00 | 0.00 | 0.00 | 78 | 1011.4 |
| 20260502061541 | 49 | 207 | 0.0 | 1.0 | 0.00 | 0.00 | 0.00 | 77 | 1011.5 |
| 20260502060004 | 49 | 197 | 0.0 | 2.0 | 0.00 | 0.00 | 0.00 | 76 | 1011.7 |
| 20260502054538 | 49 | 170 | 1.0 | 4.0 | 0.00 | 0.00 | 0.00 | 76 | 1011.5 |
| 20260502053111 | 50 | 259 | 0.0 | 6.0 | 0.00 | 0.00 | 0.00 | 75 | 1011.8 |
| 20260502051530 | 50 | 232 | 2.0 | 6.0 | 0.00 | 0.00 | 0.00 | 74 | 1012.0 |
| 20260502050048 | 50 | 265 | 0.0 | 4.0 | 0.00 | 0.00 | 0.00 | 74 | 1012.3 |
| 20260502044505 | 50 | 235 | 1.0 | 4.0 | 0.00 | 0.00 | 0.00 | 74 | 1012.3 |
| 20260502043037 | 50 | 233 | 0.0 | 4.0 | 0.00 | 0.00 | 0.00 | 74 | 1012.2 |
| 20260502041600 | 50 | 226 | 1.0 | 5.0 | 0.00 | 0.00 | 0.00 | 74 | 1012.1 |
| 20260502040038 | 50 | 264 | 2.0 | 6.0 | 0.00 | 0.00 | 0.00 | 73 | 1012.1 |
| 20260502034551 | 50 | 212 | 1.0 | 5.0 | 0.00 | 0.00 | 0.00 | 73 | 1012.3 |
| 20260502033031 | 50 | 231 | 2.0 | 6.0 | 0.00 | 0.00 | 0.00 | 73 | 1012.3 |
| 20260502031501 | 50 | 270 | 2.0 | 4.0 | 0.00 | 0.00 | 0.00 | 72 | 1012.2 |
| 20260502030052 | 50 | 264 | 1.0 | 7.0 | 0.00 | 0.00 | 0.00 | 72 | 1012.3 |
| 20260502024544 | 51 | 263 | 0.0 | 4.0 | 0.00 | 0.00 | 0.00 | 72 | 1012.3 |